Wind_Speed
10 11 12 13 13 13 15 18 19 18 21 20 20 22 23 25 25 24 24 24 25 25 27 28 28 26 26 26 26 25 23 21 20 19 19 19 19 18 19 19 19 19 19 18 17 17 17 17 16
10 9 10 11 11 11 12 16 17 18 17 18 21 23 25 27 25 25 25 26 27 28 28 29 28 27 26 26 26 25 23 21 21 21 21 22 22 22 22 22 22 21 21 20 19 18 18 17 16
8 8 8 10 13 13 17 18 15 13 16 19 21 22 24 26 25 26 27 29 29 29 29 29 28 28 27 26 25 23 22 22 23 23 23 23 24 23 23 23 23 23 23 22 21 20 19 18 17
5 5 8 9 12 14 14 12 13 14 15 16 18 21 25 25 26 26 27 28 29 30 29 29 29 28 27 25 24 23 23 24 25 25 25 24 24 24 24 24 24 23 23 23 22 21 20 20 19
6 4 6 8 10 11 12 13 13 15 15 16 18 21 26 23 26 27 27 28 30 31 30 30 30 28 27 25 25 25 26 26 26 27 26 26 25 25 25 25 25 24 23 23 23 23 22 21 20
8 7 8 9 9 11 12 13 15 16 17 19 20 21 27 25 27 28 29 30 31 32 31 28 28 27 27 27 28 28 28 28 28 28 28 27 26 26 26 26 26 25 25 25 24 24 24 23 22
9 9 9 10 11 12 13 14 17 17 19 20 20 23 30 28 26 29 30 31 31 32 32 31 29 29 29 29 29 30 30 29 29 29 29 28 27 27 26 26 26 26 26 26 25 25 24 24 23
13 13 13 13 14 16 16 17 19 19 21 22 23 26 32 31 27 30 31 32 33 33 33 33 32 30 29 30 30 30 29 28 27 27 27 27 27 27 27 27 27 27 27 27 26 26 25 24 24
13 15 16 17 17 19 18 20 21 21 23 25 26 29 33 32 30 30 32 33 34 33 33 33 32 30 28 27 26 26 26 25 24 25 25 25 26 27 27 27 27 28 28 28 28 27 26 26 25
12 14 16 16 17 18 20 21 22 23 24 28 30 30 32 30 29 30 30 31 31 29 29 30 30 28 27 26 24 23 24 25 25 26 26 26 27 28 28 27 28 29 29 29 29 29 28 28 28
11 13 14 14 15 17 18 20 23 24 26 30 30 29 31 30 27 27 27 28 29 28 27 27 27 27 26 25 24 23 23 24 25 26 27 27 29 30 31 30 30 31 32 32 33 33 33 33 33
10 11 12 13 13 14 16 18 21 25 27 28 28 28 29 28 26 26 27 28 29 29 29 29 28 28 27 26 26 25 25 25 25 26 27 28 29 30 32 32 32 33 34 36 36 37 38 39 40
12 13 14 15 14 15 16 19 21 24 24 24 26 28 27 27 27 29 30 31 31 31 30 30 30 29 29 29 29 29 30 30 30 30 31 32 33 34 34 35 35 35 36 36 37 38 39 41 42
16 17 19 19 18 18 20 24 26 25 23 25 28 29 28 28 29 30 31 30 31 31 30 31 32 32 32 32 33 34 35 35 36 37 37 38 39 40 40 40 40 39 39 40 40 40 40 41 42
20 21 23 22 21 21 23 27 31 26 25 27 28 29 29 29 29 28 29 29 30 31 31 32 34 36 37 37 38 40 41 41 42 43 44 45 46 46 46 46 46 45 44 44 44 44 44 44 44
23 23 26 25 20 21 23 28 31 27 26 27 27 26 26 26 25 26 27 28 30 32 34 36 38 41 43 44 45 46 47 48 48 49 50 51 51 52 52 52 52 52 51 50 49 50 50 50 49
24 23 23 27 24 21 23 26 26 24 24 24 24 25 25 25 27 29 31 33 35 38 40 43 45 47 49 51 51 52 52 53 53 54 54 54 55 56 56 56 57 57 57 56 55 54 54 54 54
20 21 22 23 23 21 21 25 25 21 24 26 28 30 32 33 35 37 39 41 43 45 47 48 50 51 52 53 54 54 55 55 56 57 57 57 58 59 60 60 60 61 61 61 60 59 58 57 57
17 18 19 20 20 20 21 26 29 27 29 32 34 36 38 40 42 43 44 45 46 48 49 50 51 52 53 54 55 56 56 57 57 58 58 59 59 59 60 61 62 62 63 63 63 62 61 59 58
18 18 20 21 24 25 25 29 33 33 34 35 37 39 41 43 44 45 45 46 47 49 51 53 54 55 56 58 59 60 60 60 60 60 60 60 60 59 59 60 61 62 63 63 63 62 61 61 59
21 22 23 26 27 29 32 34 36 37 37 38 40 41 42 43 45 46 47 48 51 54 57 60 62 64 65 66 67 68 68 68 67 66 66 65 64 63 62 61 61 62 62 62 63 62 62 61 60
25 27 29 32 35 36 38 40 41 42 40 39 41 43 45 48 50 52 54 56 59 62 66 69 71 72 74 75 76 76 76 75 73 72 71 70 68 67 66 65 64 63 63 63 63 63 63 62 60
30 32 35 37 39 41 42 42 45 46 46 45 47 51 54 57 58 61 64 67 69 71 74 76 78 79 81 83 84 83 82 80 77 75 74 73 71 69 68 67 66 65 64 64 63 63 62 62 62
35 36 38 41 43 45 45 45 50 51 51 54 59 62 64 66 69 71 73 75 77 79 80 82 83 84 85 86 85 84 81 78 75 72 70 70 70 69 68 67 66 66 65 63 63 62 62 62 62
37 39 41 44 45 43 45 49 53 51 57 62 67 70 73 75 76 76 78 81 82 82 83 83 82 80 79 77 75 74 71 68 66 63 62 64 66 67 66 65 65 64 63 62 61 61 61 61 61
40 41 43 44 44 45 49 52 56 59 62 67 73 76 78 78 77 79 81 83 83 82 81 78 74 71 66 63 61 60 59 58 56 55 55 57 59 60 60 60 60 60 59 58 58 59 59 59 59
40 41 42 43 46 50 53 57 59 61 68 74 77 78 79 78 78 79 79 79 78 74 69 65 63 61 60 59 60 61 61 60 57 54 52 52 54 56 55 55 56 57 56 55 55 54 56 57 56
39 41 44 46 50 53 58 58 58 68 74 77 78 78 78 77 78 77 76 73 67 60 57 58 61 64 66 67 66 65 62 59 56 53 51 50 52 53 52 54 56 56 55 53 50 49 51 51 51
42 44 47 51 54 58 63 62 65 70 74 76 77 76 75 75 73 71 66 58 53 52 55 58 61 62 60 57 53 50 48 48 49 49 48 49 50 53 52 49 51 52 52 49 45 42 42 43 44
45 48 52 56 59 62 65 70 63 69 73 74 72 69 68 66 63 58 51 47 47 50 53 55 54 51 47 41 37 35 34 35 38 42 44 45 46 48 51 49 47 47 48 45 40 38 39 42 44
Wind_Direction
256 250 245 239 233 227 229 234 240 237 231 233 232 234 237 240 244 255 261 265 268 273 276 279 280 282 284 284 284 283 278 272 272 273 273 271 268 266 264 265 267 270 272 274 277 279 281 283 287
262 253 243 230 218 216 237 239 235 236 233 234 235 238 242 245 249 255 262 266 270 273 275 276 277 278 279 280 280 277 270 266 269 273 275 275 272 269 266 265 267 269 272 273 275 276 278 281 286
262 247 233 222 213 206 232 238 237 235 232 236 242 246 251 255 255 259 263 267 270 272 273 274 275 277 278 278 275 269 264 265 269 272 273 274 274 272 269 267 267 269 272 273 274 275 276 280 284
261 245 229 219 225 229 243 242 234 240 244 247 253 257 256 260 262 263 265 267 270 271 272 273 275 277 277 274 270 267 268 271 273 273 272 271 271 271 270 268 267 269 271 273 274 275 277 279 282
266 249 237 225 232 236 241 245 243 247 251 253 257 264 264 262 265 266 266 267 269 270 271 274 276 276 274 273 272 273 274 275 275 275 274 272 269 268 268 267 268 269 270 272 274 274 275 276 277
270 261 252 244 242 245 248 252 252 253 256 257 259 264 267 264 265 267 268 269 270 273 274 273 274 274 275 276 276 276 276 275 275 275 274 273 270 269 268 268 269 270 271 272 274 275 275 273 271
274 271 268 266 263 260 259 261 261 263 263 266 269 268 268 267 271 273 274 274 275 275 275 273 272 274 275 274 274 275 274 274 274 274 274 273 271 269 268 268 269 270 271 271 272 273 274 273 270
275 272 269 265 264 265 266 267 269 272 274 273 269 269 271 276 274 275 277 277 277 276 276 276 274 273 273 275 276 276 275 276 276 275 275 274 273 272 270 269 269 269 269 270 271 271 271 271 269
277 273 271 271 272 272 271 270 270 270 271 271 269 267 268 274 278 277 277 276 276 276 276 276 277 278 277 276 276 278 279 280 280 279 277 276 275 274 273 272 270 269 269 269 269 270 269 268 266
278 277 279 281 277 276 274 271 270 268 267 267 267 269 274 276 278 279 279 279 279 279 277 276 277 278 279 279 277 276 278 280 280 279 278 278 276 274 274 273 272 272 272 270 269 268 269 267 265
285 285 288 288 286 284 282 279 276 272 268 267 271 274 277 280 280 280 283 284 285 285 282 279 278 278 277 277 276 274 273 274 276 277 277 275 274 274 273 272 272 273 273 272 271 270 269 268 266
302 300 299 298 297 296 293 287 282 277 274 276 279 278 278 282 285 286 286 287 287 286 284 282 280 278 277 274 272 272 272 271 271 273 275 275 273 272 272 271 270 270 270 270 270 270 269 268 267
312 310 307 305 305 304 299 291 283 279 285 288 285 284 287 289 288 286 285 286 285 284 284 282 279 275 273 271 270 270 271 272 272 273 273 274 274 273 272 271 269 268 268 268 268 269 269 269 269
311 308 305 305 306 301 296 290 285 287 293 289 288 290 291 290 288 286 285 284 282 281 281 279 277 275 273 272 272 272 272 273 274 275 275 274 274 273 272 271 270 268 267 266 266 266 267 268 269
302 301 298 298 298 293 289 287 289 296 294 289 289 290 290 289 286 284 283 282 281 280 279 278 278 278 277 276 276 276 275 275 275 275 276 275 275 273 272 271 270 269 267 266 265 265 265 266 268
297 295 295 298 295 293 289 287 292 299 296 294 294 294 292 290 287 286 285 283 282 282 282 282 282 282 282 281 281 280 278 277 276 275 275 275 274 273 272 271 270 268 267 266 265 265 265 265 266
300 301 302 305 307 304 296 292 296 301 300 300 300 299 296 292 289 289 288 287 286 285 284 284 284 284 284 284 283 281 280 278 276 275 273 272 272 271 271 270 269 268 267 266 265 265 265 265 265
307 307 307 307 312 313 308 303 303 305 303 302 300 299 297 295 293 292 291 290 289 287 287 286 285 284 283 281 280 279 278 277 275 274 272 271 269 268 268 268 267 267 267 266 265 264 264 264 263
323 321 318 317 318 316 312 307 306 307 303 300 298 298 297 296 296 295 294 292 290 288 288 288 287 286 284 281 278 277 276 276 275 274 273 272 270 268 267 267 267 266 266 265 265 264 263 262 262
336 332 327 323 320 317 312 307 306 308 305 302 301 299 299 299 299 299 298 296 293 292 292 292 290 289 287 285 282 280 279 278 277 277 276 275 273 271 269 268 267 266 265 265 264 263 262 261 260
337 333 329 324 321 318 315 310 309 308 306 306 304 303 303 304 303 303 302 300 297 295 294 294 293 292 290 288 287 285 283 282 280 279 277 276 275 274 272 271 269 267 265 264 263 262 261 260 259
335 332 328 324 321 321 318 313 311 308 310 310 307 306 306 306 305 304 304 302 300 298 296 295 294 292 291 289 288 287 285 283 282 280 278 277 275 273 272 270 268 266 264 262 261 260 259 259 258
330 328 325 322 319 317 315 317 315 312 313 311 309 309 309 308 307 306 305 303 300 298 296 295 294 292 291 290 289 287 286 284 282 280 278 275 272 269 268 267 266 264 262 260 259 257 257 256 256
327 324 322 320 320 321 322 321 316 317 315 312 311 311 309 308 308 308 306 303 301 299 298 296 295 294 292 291 289 287 285 283 281 277 274 270 268 266 264 262 261 261 260 258 257 255 254 254 254
327 325 323 323 324 324 322 319 317 318 316 314 312 311 310 310 310 309 306 304 302 301 300 298 296 295 293 291 288 286 284 282 279 274 269 265 263 262 261 259 259 259 258 256 254 253 252 252 252
328 327 325 324 322 319 320 321 319 318 315 311 309 308 309 310 311 308 306 305 304 303 302 300 298 296 293 290 287 285 283 281 279 275 269 263 261 260 259 258 258 258 256 253 252 252 252 252 252
329 326 324 322 320 319 321 320 316 314 310 307 307 309 311 311 310 307 306 305 305 304 304 303 302 299 296 291 286 284 282 281 278 276 271 265 259 257 258 258 257 256 255 254 253 252 252 252 252
329 326 324 323 322 319 317 318 313 310 307 307 309 311 312 310 309 308 307 306 307 307 307 308 306 304 300 295 290 285 281 276 273 270 266 262 257 253 253 254 255 254 255 255 253 252 251 251 252
330 327 325 324 321 319 317 314 313 306 306 309 311 312 310 309 307 306 306 307 308 310 312 313 313 311 309 305 299 292 283 273 267 264 262 259 256 252 249 251 251 252 252 252 250 250 250 251 253
331 327 324 322 320 317 313 313 311 307 309 310 310 308 306 305 305 306 307 309 312 315 317 320 322 322 320 317 314 308 298 285 273 266 262 261 258 254 249 247 247 248 248 247 248 250 253 254 255
Height
5832 5833 5834 5836 5838 5838 5838 5838 5838 5839 5841 5843 5845 5846 5847 5847 5850 5853 5851 5851 5851 5851 5851 5851 5851 5850 5850 5849 5849 5848 5848 5848 5847 5847 5847 5847 5846 5846 5846 5846 5847 5847 5847 5847 5847 5847 5847 5847 5847
5831 5831 5833 5834 5835 5835 5836 5835 5836 5837 5840 5841 5841 5843 5843 5844 5847 5848 5847 5847 5847 5848 5848 5847 5847 5846 5845 5844 5844 5844 5844 5844 5844 5844 5843 5843 5843 5843 5842 5843 5843 5843 5843 5844 5844 5844 5844 5844 5844
5830 5830 5832 5832 5832 5832 5832 5833 5834 5836 5837 5838 5839 5840 5841 5842 5844 5844 5843 5843 5843 5843 5844 5843 5842 5841 5840 5840 5839 5839 5839 5839 5839 5839 5839 5839 5839 5839 5839 5839 5839 5839 5839 5840 5840 5840 5840 5840 5841
5830 5830 5830 5831 5830 5830 5831 5832 5834 5835 5836 5837 5837 5837 5838 5839 5839 5839 5839 5839 5838 5839 5839 5837 5837 5836 5836 5835 5835 5835 5835 5835 5835 5835 5835 5834 5834 5834 5834 5834 5834 5835 5835 5836 5836 5836 5836 5836 5837
5829 5829 5830 5829 5829 5830 5830 5831 5833 5833 5834 5834 5835 5834 5834 5836 5835 5835 5835 5834 5834 5834 5835 5833 5832 5832 5831 5831 5831 5831 5830 5830 5830 5830 5829 5829 5829 5829 5830 5830 5830 5830 5831 5831 5831 5832 5832 5832 5833
5828 5829 5829 5828 5828 5828 5829 5830 5831 5831 5832 5832 5832 5832 5830 5832 5831 5831 5831 5830 5829 5829 5829 5829 5827 5827 5827 5826 5826 5825 5825 5824 5824 5824 5824 5824 5824 5824 5824 5825 5825 5825 5826 5826 5826 5827 5827 5827 5828
5828 5827 5827 5827 5827 5828 5828 5828 5828 5829 5829 5830 5830 5829 5826 5827 5829 5827 5826 5825 5824 5823 5823 5822 5822 5821 5820 5820 5820 5819 5818 5818 5818 5818 5818 5818 5818 5818 5818 5819 5819 5820 5820 5820 5821 5821 5822 5822 5823
5825 5826 5825 5825 5826 5826 5827 5826 5827 5827 5827 5827 5827 5826 5822 5823 5824 5823 5821 5820 5819 5818 5817 5816 5815 5816 5816 5814 5814 5813 5813 5813 5812 5812 5812 5812 5812 5812 5812 5812 5813 5813 5814 5814 5815 5815 5816 5817 5818
5822 5824 5823 5823 5824 5824 5824 5824 5824 5824 5823 5822 5821 5820 5818 5818 5818 5817 5816 5814 5812 5812 5811 5810 5809 5809 5809 5809 5809 5808 5807 5807 5807 5806 5806 5806 5806 5806 5806 5807 5807 5807 5807 5808 5809 5809 5810 5811 5813
5820 5820 5820 5821 5821 5821 5820 5820 5820 5819 5818 5816 5815 5814 5813 5815 5813 5811 5810 5808 5806 5806 5805 5804 5803 5803 5803 5802 5802 5802 5802 5801 5801 5800 5800 5800 5800 5800 5800 5801 5801 5801 5801 5802 5802 5803 5804 5805 5806
5818 5817 5817 5818 5817 5817 5817 5816 5814 5813 5812 5810 5810 5811 5808 5808 5807 5806 5804 5802 5801 5800 5799 5798 5798 5797 5797 5796 5795 5795 5795 5795 5795 5794 5794 5794 5794 5793 5793 5794 5795 5795 5795 5795 5796 5797 5797 5798 5800
5816 5815 5815 5815 5815 5814 5813 5811 5809 5807 5806 5806 5806 5804 5804 5803 5802 5801 5799 5797 5796 5795 5794 5793 5792 5791 5790 5790 5789 5788 5787 5787 5787 5787 5787 5787 5787 5786 5786 5786 5786 5787 5788 5788 5788 5789 5790 5790 5791
5815 5814 5813 5812 5812 5811 5809 5806 5804 5802 5802 5802 5800 5799 5799 5799 5798 5796 5794 5792 5790 5789 5788 5787 5785 5784 5783 5782 5781 5780 5779 5779 5779 5779 5778 5778 5778 5778 5778 5778 5778 5778 5779 5779 5780 5780 5780 5781 5782
5813 5811 5809 5809 5809 5807 5805 5801 5799 5799 5800 5798 5796 5795 5794 5793 5792 5789 5788 5786 5783 5781 5780 5779 5777 5776 5775 5773 5772 5771 5771 5770 5769 5769 5769 5768 5768 5768 5768 5768 5768 5769 5769 5770 5770 5771 5771 5771 5772
5809 5808 5806 5805 5804 5803 5801 5796 5793 5796 5795 5793 5791 5789 5788 5786 5784 5782 5780 5778 5776 5774 5772 5770 5769 5767 5765 5764 5763 5762 5761 5760 5759 5759 5758 5758 5758 5758 5757 5757 5757 5758 5758 5759 5759 5760 5760 5761 5762
5806 5804 5801 5800 5801 5798 5798 5793 5790 5790 5789 5787 5785 5783 5781 5780 5778 5775 5773 5771 5769 5767 5765 5762 5760 5757 5755 5754 5753 5751 5750 5749 5748 5747 5746 5745 5745 5745 5745 5745 5745 5744 5745 5746 5746 5747 5748 5749 5750
5801 5800 5798 5795 5794 5794 5792 5788 5787 5786 5783 5781 5779 5777 5776 5774 5772 5769 5767 5764 5761 5758 5755 5753 5750 5747 5744 5742 5740 5738 5737 5735 5734 5733 5732 5731 5731 5730 5730 5731 5730 5730 5730 5731 5732 5733 5734 5735 5737
5798 5796 5795 5793 5791 5790 5787 5784 5783 5783 5780 5777 5775 5772 5770 5767 5765 5762 5759 5755 5752 5748 5745 5741 5738 5734 5732 5729 5726 5724 5722 5720 5718 5717 5716 5715 5715 5714 5714 5715 5715 5715 5715 5715 5716 5718 5719 5721 5722
5796 5795 5793 5792 5790 5788 5786 5782 5778 5779 5776 5772 5769 5766 5762 5759 5755 5752 5748 5744 5740 5736 5732 5729 5725 5721 5717 5714 5712 5709 5707 5705 5703 5701 5699 5698 5698 5697 5697 5698 5698 5698 5699 5699 5700 5701 5703 5704 5706
5795 5794 5792 5790 5787 5785 5784 5779 5775 5773 5770 5765 5761 5757 5753 5748 5745 5741 5736 5732 5727 5723 5719 5715 5711 5706 5702 5699 5696 5693 5691 5688 5686 5684 5683 5681 5679 5679 5680 5680 5680 5681 5682 5683 5684 5685 5686 5688 5690
5794 5792 5790 5787 5784 5781 5778 5774 5770 5766 5762 5757 5752 5747 5743 5738 5733 5729 5724 5719 5714 5709 5704 5699 5694 5689 5685 5681 5677 5673 5671 5669 5667 5665 5663 5662 5661 5660 5661 5662 5662 5663 5665 5666 5667 5668 5670 5672 5673
5792 5789 5786 5782 5778 5775 5770 5764 5761 5756 5752 5747 5742 5736 5731 5726 5721 5715 5710 5704 5698 5692 5685 5680 5674 5669 5664 5659 5654 5651 5648 5646 5644 5642 5640 5640 5640 5639 5640 5641 5642 5643 5646 5647 5649 5650 5652 5654 5656
5788 5785 5781 5776 5771 5767 5761 5755 5750 5745 5741 5735 5730 5725 5719 5713 5706 5700 5693 5686 5680 5673 5666 5660 5653 5647 5641 5635 5630 5625 5622 5620 5618 5616 5615 5615 5617 5617 5618 5620 5621 5622 5625 5628 5630 5632 5634 5636 5639
5784 5781 5776 5770 5764 5758 5752 5746 5740 5734 5728 5723 5717 5711 5704 5697 5690 5682 5674 5666 5659 5651 5644 5637 5630 5623 5615 5609 5603 5598 5594 5592 5591 5590 5589 5588 5590 5592 5594 5597 5599 5601 5605 5608 5611 5613 5616 5618 5621
5778 5774 5769 5763 5757 5752 5746 5740 5734 5725 5718 5710 5702 5695 5687 5679 5671 5662 5653 5644 5636 5627 5619 5611 5603 5596 5589 5582 5576 5570 5567 5564 5564 5565 5564 5563 5565 5568 5572 5576 5579 5581 5585 5589 5592 5595 5598 5601 5604
5772 5767 5762 5756 5751 5746 5739 5731 5725 5716 5707 5696 5687 5678 5669 5661 5651 5640 5630 5619 5610 5601 5592 5584 5576 5570 5564 5558 5552 5547 5543 5541 5541 5542 5542 5542 5544 5546 5551 5556 5559 5562 5567 5571 5574 5578 5581 5584 5588
5767 5761 5755 5750 5743 5737 5730 5719 5713 5704 5693 5682 5671 5661 5652 5642 5631 5619 5609 5598 5588 5579 5571 5562 5554 5548 5543 5537 5532 5527 5523 5520 5520 5521 5522 5523 5525 5528 5534 5538 5541 5545 5550 5555 5559 5562 5565 5568 5572
5761 5754 5749 5742 5734 5729 5723 5710 5699 5688 5675 5665 5655 5646 5636 5624 5611 5600 5590 5580 5571 5562 5555 5547 5538 5529 5521 5514 5507 5502 5500 5498 5498 5500 5503 5505 5508 5512 5517 5521 5526 5531 5536 5540 5544 5548 5551 5553 5556
5754 5747 5740 5734 5725 5716 5709 5702 5686 5669 5657 5649 5640 5629 5616 5605 5594 5584 5575 5566 5558 5551 5542 5533 5522 5511 5501 5491 5484 5479 5477 5477 5478 5480 5484 5487 5490 5494 5500 5506 5512 5517 5522 5527 5531 5534 5537 5539 5542
5746 5740 5732 5726 5718 5707 5696 5693 5671 5655 5642 5631 5622 5612 5601 5591 5580 5570 5561 5555 5548 5540 5531 5520 5509 5497 5487 5478 5472 5466 5463 5462 5463 5465 5468 5471 5475 5479 5485 5491 5498 5504 5510 5514 5518 5521 5524 5526 5528